Weather History for LKMT - June, 2013

Change the Weather History Date:

Sunday, June 30, 2013

  Actual Average (EPKT) Record (EPKT)
Temperature  
Mean Temperature 54 °F -  
Max Temperature 58 °F 74 °F 89 °F (2012)
Min Temperature 50 °F 53 °F 39 °F (2000)
Degree Days  
Heating Degree Days 11    
Growing Degree Days 4 (Base 50)    
Moisture  
Dew Point 50 °F    
Average Humidity 83    
Maximum Humidity 94    
Minimum Humidity 64    
Precipitation  
Precipitation 0.08 in 0.12 in - ()
Sea Level Pressure  
Sea Level Pressure 30.09 in    
Wind  
Wind Speed 4 mph ()    
Max Wind Speed 10 mph    
Max Gust Speed -    
Visibility 6.9 miles    
Events Rain    
Averages and records for this station are not official NWS values.
T = Trace of Precipitation, MM = Missing Value Source: Averaged Metar Reports

Daily Weather History Graph

Daily Weather History Graph

Search for Another Location

Airport or City:

Trip Planner

Search our weather history database for the weather conditions in past years. The results will help you decide how hot, cold, wet, or windy it might be!

Date:

Astronomy

Jun. 30, 2013 Rise Set
Actual Time 4:43 AM CEST 8:58 PM CEST
Civil Twilight 3:59 AM CEST 9:42 PM CEST
Nautical Twilight 2:56 AM CEST 10:45 PM CEST
Astronomical Twilight 1:23 AM CEST 12:18 AM CEST
Moon 12:04 AM CEST (6/30) 1:27 PM CEST (6/30)
Length of Visible Light 17h 42m
Length of Day
16h 15m
Waning Gibbous, 48% of the Moon is Illuminated
Jun 30
Waning Gibbous
Jul 8
New
Jul 16
First Quarter
Jul 22
Full
Jul 29
Last Quarter

Hourly Weather History & Observations

Time (CEST) Temp. Dew Point Humidity Pressure Visibility Wind Dir Wind Speed Gust Speed Precip Events Conditions
12:00 AM 55.4 °F 50.0 °F 82% 30.04 in - SSW 5.8 mph - N/A   Clear
12:30 AM 55.4 °F 50.0 °F 82% 30.04 in - South 3.5 mph - N/A   Clear
1:00 AM 55.4 °F 50.0 °F 82% 30.04 in - South 4.6 mph - N/A   Clear
1:30 AM 53.6 °F 50.0 °F 88% 30.04 in - Variable 2.3 mph - N/A   Clear
2:00 AM 54 °F 50 °F 80% 30.06 in 9 mi 2.2 mph - -   Partly Cloudy
2:00 AM 53.6 °F 50.0 °F 88% 30.04 in - Variable 2.3 mph - N/A   Clear
2:30 AM 53.6 °F 50.0 °F 88% 30.04 in - SW 3.5 mph - N/A   Clear
3:00 AM 53.6 °F 51.8 °F 94% 30.04 in 6.2 mi SE 3.5 mph - N/A   Partly Cloudy
3:30 AM 53.6 °F 50.0 °F 88% 30.04 in - SSW 5.8 mph - N/A   Clear
4:00 AM 51.8 °F 50.0 °F 94% 30.04 in - SSW 4.6 mph - N/A   Clear
4:30 AM 51.8 °F 50.0 °F 94% 30.04 in - South 4.6 mph - N/A   Clear
5:00 AM 53.6 °F 50.0 °F 88% 30.04 in - SSW 5.8 mph - N/A   Clear
5:30 AM 53.6 °F 50.0 °F 88% 30.04 in - Calm Calm - N/A   Clear
6:00 AM 53.6 °F 50.0 °F 88% 30.04 in - SW 3.5 mph - N/A   Clear
6:30 AM 53.6 °F 51.8 °F 94% 30.06 in - SW 2.3 mph - N/A   Clear
7:00 AM 53.6 °F 50.0 °F 88% 30.06 in 6.2 mi Variable 1.2 mph - N/A   Overcast
7:11 AM 53.6 °F 51.8 °F 94% 30.06 in 6.2 mi NW 4.6 mph - N/A   Overcast
7:30 AM 55.4 °F 51.8 °F 88% 30.09 in 6.2 mi NNW 4.6 mph - N/A Rain Light Rain
8:00 AM 55 °F 51 °F 83% 30.10 in 16 mi NNW 8.9 mph - - Rain Light Rain
8:00 AM 55.4 °F 51.8 °F 88% 30.09 in 6.2 mi NNW 8.1 mph - N/A   Overcast
8:30 AM 55.4 °F 51.8 °F 88% 30.09 in 6.2 mi North 10.4 mph - N/A   Overcast
9:00 AM 55.4 °F 50.0 °F 82% 30.09 in 6.2 mi North 10.4 mph - N/A   Overcast
9:30 AM 55.4 °F 50.0 °F 82% 30.12 in 6.2 mi NNW 10.4 mph - N/A   Overcast
10:00 AM 55.4 °F 50.0 °F 82% 30.12 in 6.2 mi NNW 10.4 mph - N/A Rain Light Rain
10:30 AM 53.6 °F 50.0 °F 88% 30.12 in 6.2 mi North 8.1 mph - N/A Rain Light Rain
11:00 AM 55.4 °F 51.8 °F 88% 30.12 in 6.2 mi NNW 6.9 mph - N/A   Overcast
11:30 AM 55.4 °F 51.8 °F 88% 30.12 in 6.2 mi NNW 8.1 mph - N/A Rain Light Rain
12:00 PM 53.6 °F 51.8 °F 94% 30.12 in 6.2 mi NNW 4.6 mph - N/A Rain Light Rain
12:30 PM 53.6 °F 51.8 °F 94% 30.12 in 6.2 mi Variable 2.3 mph - N/A   Overcast
1:00 PM 53.6 °F 50.0 °F 88% 30.12 in 6.2 mi NNW 5.8 mph - N/A Rain Light Rain
1:30 PM 55.4 °F 50.0 °F 82% 30.12 in 6.2 mi North 6.9 mph - N/A   Overcast
2:00 PM 55 °F 50 °F 78% 30.15 in 7 mi NNW 8.9 mph - - Rain Light Rain
2:00 PM 55.4 °F 50.0 °F 82% 30.12 in 6.2 mi NNW 8.1 mph - N/A Rain Light Rain
2:30 PM 55.4 °F 50.0 °F 82% 30.12 in 6.2 mi North 9.2 mph - N/A Rain Light Rain
3:00 PM 55.4 °F 50.0 °F 82% 30.12 in 6.2 mi North 6.9 mph - N/A Rain Light Rain
3:30 PM 55.4 °F 50.0 °F 82% 30.12 in 6.2 mi North 5.8 mph - N/A   Overcast
4:00 PM 55.4 °F 48.2 °F 77% 30.12 in 6.2 mi NNW 4.6 mph - N/A   Overcast
4:30 PM 55.4 °F 48.2 °F 77% 30.12 in 6.2 mi Variable 2.3 mph - N/A   Mostly Cloudy
5:00 PM 57.2 °F 48.2 °F 72% 30.12 in 6.2 mi NE 3.5 mph - N/A   Scattered Clouds
5:30 PM 57.2 °F 46.4 °F 67% 30.12 in 6.2 mi Variable 2.3 mph - N/A   Partly Cloudy
6:00 PM 59.0 °F 48.2 °F 67% 30.12 in - SE 3.5 mph - N/A   Clear
6:30 PM 57.2 °F 48.2 °F 72% 30.12 in - Variable 1.2 mph - N/A   Clear
7:00 PM 57.2 °F 48.2 °F 72% 30.09 in - South 3.5 mph - N/A   Clear
7:30 PM 57.2 °F 48.2 °F 72% 30.09 in - Variable 1.2 mph - N/A   Clear
8:00 PM 57 °F 48 °F 64% 30.12 in 19 mi South 2.2 mph - -   Partly Cloudy
8:00 PM 57.2 °F 48.2 °F 72% 30.12 in - Variable 2.3 mph - N/A   Clear
8:30 PM 57.2 °F 50.0 °F 77% 30.12 in 6.2 mi WNW 1.2 mph - N/A   Partly Cloudy
9:00 PM 55.4 °F 50.0 °F 82% 30.12 in 6.2 mi Variable 1.2 mph - N/A   Partly Cloudy
9:30 PM 55.4 °F 50.0 °F 82% 30.12 in 6.2 mi WNW 4.6 mph - N/A   Mostly Cloudy
10:00 PM 55.4 °F 48.2 °F 77% 30.12 in 6.2 mi North 3.5 mph - N/A   Scattered Clouds
10:30 PM 53.6 °F 46.4 °F 77% 30.15 in 6.2 mi NNE 2.3 mph - N/A   Mostly Cloudy
11:00 PM 53.6 °F 46.4 °F 77% 30.15 in 6.2 mi NW 2.3 mph - N/A   Mostly Cloudy
11:30 PM 53.6 °F 46.4 °F 77% 30.15 in 6.2 mi North 2.3 mph - N/A   Mostly Cloudy